KD7QQY Weather Reports


time (UTC)temp
C
wind
direction
speed
KPH
gust
KPH
rain 1hr
cm
rain 24hr
cm
rain mn
cm
humidity
%
barometer
mb
20260504232525 14 239 1.6 6.4 0.00 0.00 0.00 87 1010.9
20260504232022 14 157 0.0 6.4 0.00 0.00 0.00 87 1010.8
20260504231542 14 164 0.0 4.8 0.00 0.00 0.00 87 1010.8
20260504231023 14 136 1.6 6.4 0.00 0.00 0.00 87 1010.9
20260504230524 14 209 1.6 6.4 0.00 0.00 0.00 87 1010.8
20260504230041 14 94 1.6 6.4 0.00 0.00 0.00 87 1010.9
20260504225523 14 221 0.0 4.8 0.00 0.00 0.00 87 1010.9
20260504225023 14 221 1.6 8.0 0.00 0.00 0.00 87 1011.0
20260504224539 14 0 0.0 8.0 0.00 0.00 0.00 86 1011.0
20260504224023 15 147 1.6 6.4 0.00 0.00 0.00 86 1010.9
20260504223523 15 163 1.6 6.4 0.00 0.00 0.00 87 1010.9
20260504223054 15 0 1.6 6.4 0.00 0.00 0.00 86 1010.9
20260504222522 15 223 1.6 9.7 0.00 0.00 0.00 87 1011.0
20260504222023 15 240 0.0 9.7 0.00 0.00 0.00 87 1011.0
20260504221535 15 128 1.6 9.7 0.00 0.00 0.00 87 1011.1
20260504221022 15 254 0.0 6.4 0.00 0.00 0.00 87 1011.1
20260504220522 15 360 1.6 6.4 0.00 0.00 0.00 87 1011.0
20260504220043 15 0 0.0 8.0 0.00 0.00 0.00 87 1011.1
20260504215523 14 115 1.6 8.0 0.00 0.00 0.00 86 1011.1
20260504215026 15 186 1.6 6.4 0.00 0.00 0.00 86 1011.1
20260504214541 15 262 1.6 11.3 0.00 0.00 0.00 87 1011.2
20260504214025 15 143 1.6 11.3 0.00 0.00 0.00 86 1011.2
20260504213523 15 0 1.6 9.7 0.00 0.00 0.00 87 1011.1
20260504213040 15 155 1.6 9.7 0.00 0.00 0.00 87 1011.1
20260504212523 14 59 1.6 8.0 0.00 0.00 0.00 87 1011.0
20260504212024 14 123 3.2 8.0 0.00 0.00 0.00 87 1011.0
20260504211604 14 279 1.6 9.7 0.00 0.00 0.00 87 1011.1
20260504211023 14 154 0.0 9.7 0.00 0.00 0.00 87 1011.1
20260504210523 14 0 1.6 9.7 0.00 0.00 0.00 87 1011.1
20260504210043 14 162 1.6 9.7 0.00 0.00 0.00 87 1011.1
20260504205523 14 92 1.6 9.7 0.00 0.00 0.00 87 1011.1
20260504205023 14 177 1.6 14.5 0.00 0.00 0.00 88 1011.2
20260504204543 14 0 0.0 14.5 0.00 0.00 0.00 88 1011.2
20260504204023 14 95 1.6 9.7 0.00 0.00 0.00 88 1011.1
20260504203522 14 162 3.2 9.7 0.00 0.00 0.00 88 1011.0
20260504203043 14 0 1.6 9.7 0.00 0.00 0.00 88 1011.1
20260504202522 14 311 1.6 9.7 0.00 0.00 0.00 88 1011.1
20260504202023 13 0 1.6 9.7 0.00 0.00 0.00 88 1011.0
20260504201540 13 63 3.2 9.7 0.00 0.00 0.00 88 1011.1
20260504201026 14 0 1.6 9.7 0.00 0.00 0.00 88 1011.1
20260504200523 14 149 1.6 8.0 0.00 0.00 0.00 89 1011.1
20260504200039 13 319 1.6 9.7 0.00 0.00 0.00 88 1011.1
20260504195522 13 131 1.6 9.7 0.00 0.00 0.00 89 1011.1
20260504195023 14 144 1.6 9.7 0.00 0.00 0.00 89 1011.1
20260504194547 13 81 1.6 9.7 0.00 0.00 0.00 89 1011.0
20260504194023 13 146 1.6 9.7 0.00 0.00 0.00 89 1011.1
20260504193522 13 0 1.6 9.7 0.00 0.00 0.00 89 1011.1
20260504193037 13 241 1.6 9.7 0.00 0.00 0.00 90 1011.0
20260504192524 13 107 1.6 12.9 0.00 0.00 0.00 90 1011.1
20260504192022 13 95 4.8 12.9 0.00 0.00 0.00 90 1011.1
20260504191601 13 298 4.8 14.5 0.00 0.00 0.00 90 1011.0
20260504191022 13 149 3.2 14.5 0.00 0.00 0.00 90 1011.2
20260504190523 13 200 3.2 12.9 0.00 0.00 0.00 90 1011.1
20260504190045 13 172 1.6 11.3 0.00 0.00 0.00 90 1011.1
20260504185522 13 346 1.6 11.3 0.00 0.00 0.00 90 1011.1
20260504185023 13 227 1.6 6.4 0.00 0.00 0.00 91 1011.1
20260504184547 13 71 0.0 16.1 0.00 0.00 0.00 91 1011.0
20260504184024 13 131 3.2 16.1 0.00 0.00 0.00 91 1011.0
20260504183524 13 106 1.6 9.7 0.00 0.00 0.00 91 1011.0
20260504183038 13 206 1.6 9.7 0.00 0.00 0.00 91 1010.9
20260504182524 13 235 1.6 9.7 0.00 0.00 0.00 92 1011.0
20260504182024 13 180 1.6 9.7 0.00 0.00 0.00 92 1011.0
20260504181542 13 260 1.6 11.3 0.00 0.00 0.00 92 1010.9
20260504181024 13 114 1.6 11.3 0.00 0.00 0.00 92 1011.0
20260504180524 13 169 3.2 11.3 0.00 0.00 0.00 93 1010.8
20260504180041 13 355 1.6 11.3 0.00 0.00 0.00 93 1010.9
20260504175524 13 179 1.6 11.3 0.00 0.00 0.00 93 1010.9
20260504175029 13 39 3.2 11.3 0.00 0.00 0.00 93 1010.7
20260504174544 13 252 1.6 8.0 0.00 0.00 0.00 93 1010.8
20260504174024 13 142 1.6 9.7 0.00 0.00 0.00 94 1010.8
20260504173524 13 0 1.6 9.7 0.00 0.00 0.00 93 1010.8
20260504173042 13 197 0.0 9.7 0.00 0.00 0.00 94 1010.8
20260504172524 12 217 0.0 9.7 0.00 0.00 0.00 94 1010.7
20260504172025 12 122 0.0 9.7 0.00 0.00 0.00 94 1010.7
20260504171547 12 132 1.6 9.7 0.00 0.00 0.00 94 1010.6
20260504171025 12 185 3.2 9.7 0.00 0.00 0.00 94 1010.6
20260504170524 12 92 0.0 9.7 0.00 0.00 0.00 95 1010.6
20260504151027 11 194 1.6 12.9 0.00 0.00 0.00 96 1009.9
20260504150526 11 92 1.6 6.4 0.00 0.00 0.00 96 1009.8
20260504141024 11 80 1.6 14.5 0.00 0.00 0.00 96 1009.4
20260504140525 11 233 1.6 14.5 0.00 0.00 0.00 96 1009.3
20260504130524 11 157 0.0 11.3 0.00 0.00 0.00 96 1008.7
20260504110524 11 74 1.6 9.7 0.00 0.00 0.00 95 1008.0
20260504100524 10 0 0.0 9.7 0.00 0.00 0.00 94 1007.4
20260504081535 10 0 0.0 3.2 0.00 0.00 0.00 92 1006.4
20260504081026 10 0 0.0 3.2 0.00 0.00 0.00 92 1006.5
20260504080524 10 239 0.0 4.8 0.00 0.00 0.00 92 1006.4
20260504050523 12 300 1.6 4.8 0.00 0.00 0.00 87 1006.7
20260504045524 12 300 1.6 4.8 0.00 0.00 0.00 87 1006.7
20260504045024 12 300 1.6 4.8 0.00 0.00 0.00 87 1006.7
20260504044539 12 300 1.6 4.8 0.00 0.00 0.00 87 1006.7
20260504044023 12 0 1.6 4.8 0.00 0.00 0.00 86 1006.6
20260504043524 12 300 1.6 4.8 0.00 0.00 0.00 86 1006.6
20260504043041 12 0 0.0 3.2 0.00 0.00 0.00 86 1006.5
20260504042524 12 0 0.0 4.8 0.00 0.00 0.00 86 1006.7
20260504042024 12 0 0.0 4.8 0.00 0.00 0.00 85 1006.5
20260504041536 12 0 0.0 4.8 0.00 0.00 0.00 85 1006.4
20260504041023 13 300 0.0 4.8 0.00 0.00 0.00 84 1006.6
20260504040525 13 0 0.0 4.8 0.00 0.00 0.00 84 1006.6
20260504040047 13 321 0.0 6.4 0.00 0.00 0.00 83 1006.5
20260504035523 13 0 1.6 8.0 0.00 0.08 0.00 83 1006.5
20260504035024 13 285 0.0 9.7 0.00 0.08 0.00 82 1006.5
20260504034541 13 277 1.6 9.7 0.00 0.08 0.00 81 1006.4
20260504034027 13 295 3.2 9.7 0.00 0.08 0.00 81 1006.5
20260504033523 14 300 3.2 11.3 0.00 0.08 0.00 80 1006.5
20260504033042 15 304 3.2 11.3 0.00 0.08 0.00 80 1006.5
20260504032524 15 0 1.6 9.7 0.00 0.08 0.00 79 1006.4
20260504032023 15 279 3.2 12.9 0.00 0.08 0.00 79 1006.4
20260504031552 15 305 3.2 12.9 0.00 0.08 0.00 78 1006.4
20260504031023 15 294 3.2 16.1 0.00 0.08 0.00 77 1006.4
20260504030523 15 269 4.8 16.1 0.00 0.08 0.00 77 1006.4
20260504030042 15 278 4.8 14.5 0.00 0.08 0.00 77 1006.3
20260504025524 15 294 4.8 14.5 0.00 0.08 0.00 77 1006.4
20260504025024 16 290 6.4 14.5 0.00 0.08 0.00 77 1006.4
20260504024537 16 306 4.8 12.9 0.00 0.08 0.00 76 1006.4
20260504024023 16 271 6.4 14.5 0.00 0.08 0.00 77 1006.3
20260504023523 16 307 6.4 17.7 0.00 0.08 0.00 77 1006.5
20260504023043 16 304 8.0 17.7 0.00 0.08 0.00 77 1006.4
20260504022526 16 340 4.8 14.5 0.00 0.08 0.00 77 1006.4
20260504022024 16 301 4.8 16.1 0.00 0.08 0.00 78 1006.5
20260504021607 16 290 6.4 17.7 0.00 0.08 0.00 77 1006.6
20260504021023 16 340 8.0 17.7 0.00 0.08 0.00 77 1006.6
20260504020523 16 305 8.0 20.9 0.00 0.08 0.00 77 1006.6
20260504020039 16 294 8.0 20.9 0.00 0.08 0.00 76 1006.6
20260504015523 16 325 9.7 20.9 0.00 0.08 0.00 76 1006.7
20260504015025 16 327 11.3 20.9 0.00 0.08 0.00 74 1006.7
20260504014542 16 294 8.0 19.3 0.00 0.08 0.00 74 1006.8
20260504014022 16 331 8.0 20.9 0.00 0.08 0.00 73 1006.9
20260504013522 16 294 9.7 20.9 0.00 0.08 0.00 72 1006.9
20260504013042 16 296 11.3 20.9 0.00 0.08 0.00 72 1006.9
20260504012523 16 336 9.7 19.3 0.00 0.08 0.00 72 1006.9
20260504012024 16 294 6.4 20.9 0.00 0.08 0.00 72 1007.0
20260504011540 16 284 11.3 20.9 0.00 0.08 0.00 71 1007.0
20260504011023 16 355 8.0 20.9 0.00 0.08 0.00 71 1007.1
20260504010523 16 292 11.3 20.9 0.00 0.08 0.00 69 1007.1
20260504010035 17 309 9.7 17.7 0.00 0.08 0.00 69 1007.2
20260504005523 17 279 6.4 19.3 0.00 0.08 0.00 70 1007.3
20260504005023 16 296 9.7 19.3 0.00 0.08 0.00 69 1007.3
20260504004541 17 319 8.0 22.5 0.00 0.08 0.00 68 1007.4
20260504004024 17 258 8.0 22.5 0.00 0.08 0.00 68 1007.4
20260504003523 17 281 11.3 22.5 0.00 0.08 0.00 66 1007.4
20260504003040 17 313 12.9 25.7 0.00 0.08 0.00 63 1007.5
20260504002523 17 286 11.3 25.7 0.00 0.08 0.00 62 1007.6
20260504002023 17 291 14.5 25.7 0.00 0.08 0.00 62 1007.6
20260504001548 17 309 9.7 17.7 0.00 0.08 0.00 65 1007.6
20260504001024 18 292 8.0 25.7 0.00 0.08 0.00 65 1007.5
20260504000522 18 288 9.7 27.4 0.00 0.08 0.00 63 1007.6
20260504000038 18 303 12.9 27.4 0.00 0.08 0.00 61 1007.7
20260503235524 18 295 11.3 27.4 0.00 0.08 0.00 64 1007.8
20260503235022 18 298 8.0 24.1 0.00 0.08 0.00 67 1007.8
20260503234558 18 285 11.3 25.7 0.00 0.08 0.00 66 1007.7
20260503234023 18 290 11.3 25.7 0.00 0.08 0.00 67 1007.9
20260503233524 18 315 14.5 25.7 0.00 0.08 0.00 65 1007.8
20260503233047 18 312 14.5 27.4 0.00 0.08 0.00 66 1007.9